Other Public Products
Issued by NWS Grand Forks, ND

Home | Current Version | Previous Version | Text Only | Print | Product List | Glossary Off
Versions: 1 2 3 4 5 6 7 8 9 10 11 12 13 14 15 16 17 18 19 20 21 22 23 24 25 26 27 28 29 30 31 32 33 34 35 36 37 38 39 40 41 42 43 44 45 46 47 48 49 50

000
FPUS83 KFGF 181010
OPUFGF
PRAIRIE TO PINES WEATHER ROUNDUP
NATIONAL WEATHER SERVICE EASTERN NORTH DAKOTA/GRAND FORKS ND
500 AM CDT WED OCT 18 2017

 **SATELLITE DATA USED TO AUGMENT SKY COVER AT AUTOMATED STATIONS**
 *****  WEATHER ACROSS EASTERN NORTH DAKOTA  *****

CITY           SKY/WX    TMP DP  RH WIND       PRES   REMARKS
GRAND FORKS    FAIR      55  40  56 SW10      29.54R
GRAND FORKS AF FAIR      60  34  38 W14       29.54R
GRAND CITY NWS NOT AVBL
BUXTON           N/A     51  43  73 S7          N/A
DEVILS LAKE    FAIR      62  32  32 W23G29    29.58R
FARGO          FAIR      52  41  66 S12       29.59F
WAHPETON ARPT  NOT AVBL
$$

 *****  WEATHER ACROSS CENTRAL AND WESTERN NORTH DAKOTA  *****

CITY           SKY/WX    TMP DP  RH WIND       PRES   REMARKS
JAMESTOWN      FAIR      50  35  56 W6        29.63R
BISMARCK       FAIR      61  27  27 NW16      29.71R
MINOT          FAIR      55  34  45 W26G33    29.65R
MINOT AFB      FAIR      54  34  48 W23G31    29.63R
GARRISON         N/A     54  32  43 NW24G35   29.69R
WILLISTON      CLOUDY    49  32  52 W17G26    29.81R
DICKINSON      FAIR      52  28  39 NW22G30   29.78R
HETTINGER      FAIR      59  23  25 NW18      29.80R
$$

 *****  OTHER OBSERVATIONS NORTHEAST NORTH DAKOTA  *****

CITY           SKY/WX    TMP DP  RH WIND       PRES   REMARKS
WALHALLA       FAIR     N/A N/A N/A W14G25    29.45R
LANGDON        FAIR      57  28  33 SW15      29.52R
CAVALIER       FAIR      64  32  29 W15G23    29.47R
GRAFTON        FAIR      61  36  39 SW17G24   29.52R
CANDO          FAIR      61  30  31 W21G26    29.56R
FORT TOTTEN      N/A     63  29  28 NW10      29.95S
ROLLA          FAIR      57  30  35 W29G44    29.52R
RUGBY          FAIR      57  32  38 W23G35    29.59R
 ***** THE ABOVE OBSERVATIONS ARE NON NWS ARE NOT QUALITY
        CONTROLLED AND MAY MIS-REPORT RAIN FOR SNOW...
$$

 *****  OTHER OBSERVATIONS SOUTHEAST NORTH DAKOTA *****

CITY           SKY/WX    TMP DP  RH WIND       PRES   REMARKS
COOPERSTOWN    FAIR      52  37  58 SW14      29.61R
VALLEY CITY    FAIR      48  41  76 S14       29.60S
OAKES          NOT AVBL
GWINNER        SUNNY     52  41  66 S16       29.62F
SHEYENNE NWR     N/A     49  39  67 SW7       29.95S
BUFFALO          N/A     52  38  58 SW14        N/A
WYNDMERE       NOT AVBL
 ***** THE ABOVE OBSERVATIONS ARE NON NWS ARE NOT QUALITY
       CONTROLLED AND MAY MIS-REPORT RAIN FOR SNOW...
$$

  *****  WEATHER ACROSS NORTHERN MINNESOTA  *****

CITY           SKY/WX    TMP DP  RH WIND       PRES   REMARKS
FLAG ISLAND    FAIR      57  43  58 S16       29.43F
WARROAD        NOT AVBL
ROSEAU         FAIR      59  43  55 S20G25    29.45F
HALLOCK        FAIR      52  37  58 S13       29.48R
THF RVR FALLS  FAIR      57  39  51 S17       29.53F
HALSTAD        NOT AVBL
FOSSTON        FAIR      57  36  44 S20G25    29.60S
BAUDETTE       FAIR      55  41  59 S13       29.52F
WASKISH        FAIR      61  39  44 S10G20    29.58F
CROOKSTON      FAIR      54  39  58 SW20      29.54S
$$
  *****  WEATHER ACROSS CENTRAL AND WEST MINNESOTA  *****

CITY           SKY/WX    TMP DP  RH WIND       PRES   REMARKS
BEMIDJI        FAIR      53  38  58 S8        29.63F
PARK RAPIDS    FAIR      46  39  76 S5        29.68F
WADENA         FAIR      54  41  62 S9        29.69F
DETROIT LAKES  FAIR      59  39  47 S13       29.66F
MOORHEAD       FAIR      48  39  71 S15       29.62F
FERGUS FALLS   FAIR      52  41  66 S12       29.69F
ELBOW LAKE     FAIR      50  43  76 S10       29.71F
MORRIS MN      FAIR      46  43  87 SE9       29.71S
STAPLES        FAIR      52  39  62 S10       29.71F
WHEATON        FAIR      52  39  62 S5        29.70F
$$
  *****  WEATHER ELSEWHERE ACROSS MINNESOTA  *****

CITY           SKY/WX    TMP DP  RH WIND       PRES   REMARKS
DULUTH         FAIR      51  43  74 SW10      29.79S
INTRNTL FALLS  FAIR      59  38  45 S12G23    29.57F
ELY            FAIR      57  36  44 SW10G16   29.71F
CLOQUET        FAIR      52  41  66 S7        29.78F
BRAINERD       FAIR      52  41  66 S9        29.75F
HIBBING        FAIR      43  36  76 S6        29.72F
ALEXANDRIA     FAIR      56  43  61 S13G22    29.73F
SAINT CLOUD    FAIR      47  43  86 S8        29.80S
MINNEAPOLIS    FAIR      51  45  79 SE6       29.85F
$$

  *****  WEATHER ACROSS SOUTH DAKOTA  *****

CITY           SKY/WX    TMP DP  RH WIND       PRES   REMARKS
SIOUX FALLS    FAIR      55  46  71 S12       29.80F
BROOKINGS      FAIR      50  43  77 S13       29.78R
WATERTOWN      FAIR      46  43  89 SE9       29.73S
HURON          FAIR      49  40  71 S12       29.71F
SISSETON         N/A     60  41  49 SW20      29.65F
ABERDEEN       FAIR      45  40  82 S10       29.68F
MITCHELL       FAIR      50  41  71 S8        29.75R
PIERRE         FAIR      50  31  48 W3        29.71R
MOBRIDGE       FAIR      43  38  82 CALM      29.68R
RAPID CITY     FAIR      56  24  29 N12       29.82R
$$

  *****  SOME WEATHER IN NEARBY STATES *****

CITY           SKY/WX    TMP DP  RH WIND       PRES   REMARKS
GLASGOW MT     FAIR      44  28  53 W13       29.86R
GREAT FALLS MT FAIR      46  22  38 E9        29.94S
CHEYENNE WY    FAIR      58  10  15 W30G39    30.05F
SCOTTSBLUFF NE FAIR      40  30  67 N3        29.93F
OMAHA NE       FAIR      49  43  80 SE10      29.94S
DES MOINES IA  FAIR      55  46  71 S15       29.98S
DAVENPORT IA   FAIR      51  41  68 S8        30.10S
CHICAGO IL     FAIR      49  41  74 S7        30.15S
EAU CLAIRE WI  FAIR      50  44  80 S8        29.90F
LA CROSSE WI   FAIR      56  46  69 S10       29.96S
$$

  *****  SOME NATIONAL WEATHER *****

CITY           SKY/WX    TMP DP  RH WIND       PRES   REMARKS
LA GUARDIA NY  FAIR      53  36  52 S6        30.29R
RALEIGH NC     FAIR      39  38  96 CALM      30.35R
ATLANTA GA     FAIR      48  42  80 E8        30.29R
NEW ORLEANS LA FAIR      67  61  81 NE8       30.14S
OKLAHOMA CITY  FAIR      48  43  82 S9        30.07F
ALBUQUERQUE NM FAIR      48  29  47 CALM      30.19F
SALT LAKE CITY MOCLDY    42  35  76 SE5       30.17S
LOS ANGELES CA FAIR      68  59  73 E6        29.91F
BOISE ID       FAIR      42  30  62 CALM      30.12S
SEATTLE WA     MOCLDY    48  41  76 SE5       30.04F
$$

*** WEATHER ACROSS MANITOBA...SASKATCHEWAN AND ONTARIO ***
                ***ONTARIO***

CITY           SKY/WX    TMP DP  RH WIND       PRES   REMARKS
GERALDTON      CLEAR     45  41  87 S7        29.73F
THUNDER BAY    CLEAR     34  34 100 W2        29.74F
SIOUX LOOKOUT  CLEAR     57  39  51 S14G22    29.48F
TORONTO        CLEAR     50  43  76 SW6       30.20R
BIG TROUT LK   CLEAR     39  34  81 SE20G28   29.40F
PICKLE LAKE    NOT AVBL
DRYDEN         CLEAR     57  39  51 S20G26    29.47F
KENORA         CLEAR     57  39  51 S16G23    29.42F
$$
                *** MANITOBA***

CITY           SKY/WX    TMP DP  RH WIND       PRES   REMARKS
BRANDON        PTCLDY    52  37  58 W32G45    29.44R
DAUPHIN        PTCLDY    52  37  58 W35G44    29.30R
ISLAND LAKE    NOT AVBL
PILOT MOUND      N/A     59  30  33 W14G28      N/A
THE PAS        CLOUDY    48  41  76 SW24G45   28.76S
THOMPSON       CLEAR     37  34  87 E9G18     28.88F
WINNIPEG       PTCLDY    61  30  31 SW18      29.36S
LYNN LAKE      CLOUDY    34  34 100 E16G25    28.84F WCI  23
CHURCHILL      CLOUDY    32  28  86 E26G32    29.45F WCI  18
GILLAM         CLOUDY    34  32  93 E10G24    29.14F
$$
                ***SASKATCHEWAN***

CITY           SKY/WX    TMP DP  RH WIND       PRES   REMARKS
ESTEVAN        PTCLDY    45  32  61 W21G31    29.69R
KINDERSLEY     CLEAR     37  25  60 W24G32    29.71R
LLOYDMINSTER   CLEAR     36  28  75 W26G41    29.57R
PRINCE ALBERT  LGT RAIN  43  34  70 W32G56    29.26R
REGINA         CLEAR     43  27  52 W33G44    29.61R
YORKTON        CLOUDY    46  32  57 W36G49    29.35R


USA.gov is the U.S. government's official web portal to all federal, state and local government web resources and services.